Home   Weather   Pforzheim   Past weeks

Flag for Germany Past Weather in Pforzheim, Baden-Württemberg, Germany — Yesterday and Last 2 Weeks

Now
45 °F

Fog.


Feels Like: 43 °F
Forecast: 50 / 64 °F
Wind: 3 mph from East

Location: Stuttgart-Echterdingen

Current Time: Sep 25, 2016 at 7:26:52 AM

Latest Report: Sep 25, 2016 at 6:50 AM


Visibility: 6 mi

Pressure: 30.15 "Hg

Humidity: 100%

Dew Point: 45 °F

Location of PforzheimLocation

Past Weather in Pforzheim — Graph

°F

Pforzheim Temperature Yesterday

Maximum temperature yesterday: 72 °F (at 3:20 PM)
Minimum temperature yesterday: 43 °F (at 6:20 AM)
Average temperature yesterday: 57 °F

High & Low Weather Summary for the Past Weeks

 TemperatureHumidityPressure
High88 °F (Sep 12, 4:50 PM)100% (Sep 13, 5:50 AM)30.33 "Hg (Sep 13, 5:50 AM)
Low41 °F (Sep 22, 5:50 AM)29% (Sep 13, 3:50 PM)29.83 "Hg (Sep 15, 3:20 AM)
Average63 °F72%30.05 "Hg
* Reported Sep 10 6:20 AM — Sep 25 6:20 AM, Pforzheim, Weather by CustomWeather, © 2016

Note: Actual official high and low records may vary slightly from our data, if they occured in-between our weather recording intervals... More about our weather records

Advertising

Pforzheim Weather History for the Previous 24 Hours

Scroll right to see more
 ConditionsComfort  
Time TempWeatherWind HumidityBarometerVisibility
6:20 AM
Sun, Sep 25
46 °FClear.1 mph93%30.15 "Hg10 mi
5:50 AM48 °FClear.No wind94%30.15 "Hg10 mi
5:20 AM48 °FClear.1 mph94%30.15 "Hg10 mi
4:50 AM48 °FClear.No wind87%30.15 "Hg10 mi
4:20 AM50 °FClear.1 mph94%30.15 "Hg10 mi
3:50 AM48 °FClear.1 mph94%30.18 "Hg10 mi
3:20 AM48 °FClear.2 mph94%30.18 "Hg10 mi
2:50 AM50 °FClear.3 mph88%30.18 "Hg10 mi
2:20 AM50 °FClear.3 mph88%30.18 "Hg10 mi
1:50 AM50 °FClear.3 mph88%30.18 "Hg10 mi
1:20 AM48 °FClear.3 mph87%30.18 "Hg10 mi
12:50 AM52 °FClear.3 mph88%30.18 "Hg10 mi
12:20 AM52 °FClear.2 mph88%30.18 "Hg10 mi
11:50 PM
Sat, Sep 24
54 °FClear.1 mph88%30.18 "Hg10 mi
11:20 PM54 °FClear.2 mph88%30.18 "Hg10 mi
10:50 PM55 °FClear.1 mph82%30.18 "Hg10 mi
10:20 PM55 °FClear.1 mph82%30.21 "Hg10 mi
9:50 PM57 °FClear.1 mph77%30.21 "Hg10 mi
9:20 PM59 °FClear.2 mph72%30.21 "Hg10 mi
8:50 PM59 °FClear.3 mph72%30.21 "Hg10 mi
8:20 PM59 °FClear.3 mph72%30.21 "Hg10 mi
7:50 PM61 °FClear.5 mph68%30.18 "Hg10 mi
7:20 PM64 °FClear.6 mph60%30.21 "Hg10 mi
6:50 PM66 °FSunny.6 mph56%30.21 "Hg10 mi
6:20 PM68 °FSunny.6 mph53%30.21 "Hg10 mi
5:50 PM70 °FSunny.8 mph50%30.21 "Hg10 mi
5:20 PM72 °FPassing clouds.7 mph47%30.21 "HgN/A
4:50 PM72 °FSunny.2 mph44%30.21 "Hg10 mi
4:20 PM72 °FPassing clouds.7 mph44%30.24 "HgN/A
3:50 PM72 °FSunny.5 mph41%30.24 "Hg10 mi
3:20 PM72 °FPassing clouds.5 mph44%30.24 "HgN/A
2:50 PM70 °FPassing clouds.5 mph50%30.27 "HgN/A
2:20 PM70 °FPassing clouds.5 mph53%30.27 "HgN/A
1:50 PM70 °FPassing clouds.6 mph53%30.27 "HgN/A
1:20 PM68 °FPassing clouds.3 mph53%30.30 "HgN/A
12:50 PM66 °FPassing clouds.5 mph60%30.30 "HgN/A
12:20 PM64 °FSunny.3 mph64%30.30 "Hg10 mi
11:50 AM63 °FPassing clouds.3 mph68%30.30 "HgN/A
11:20 AM61 °FSunny.2 mph68%30.33 "Hg10 mi
10:50 AM59 °FSunny.3 mph72%30.33 "Hg10 mi
10:20 AM55 °FPassing clouds.3 mph82%30.33 "HgN/A
9:50 AM52 °FPassing clouds.3 mph88%30.33 "HgN/A
9:20 AM50 °FSunny.2 mph88%30.33 "Hg10 mi
8:50 AM46 °FSunny.2 mph93%30.33 "Hg10 mi
8:20 AM46 °FFog.1 mph93%30.33 "HgN/A
7:50 AM43 °FFog.1 mph93%30.33 "Hg6 mi
7:20 AM43 °FFog.1 mph93%30.30 "Hg5 mi
Weather by CustomWeather, © 2016

See weather overviewHow to use our weather pages